EHI
10 18 26 23 14 11 15 20 23 23 21 18 16 15 13 11 10 11 13 15 16 14 11 7 4 1 1 0 0 0 0 1 2 3 2 1 1 4 6 5 4 4 6
12 21 27 23 15 12 15 20 23 24 23 19 17 15 14 12 11 12 13 15 17 16 12 9 5 2 1 1 1 0 0 1 2 2 2 1 1 4 6 5 5 6 6
13 21 26 23 18 16 17 21 24 26 26 23 21 20 17 15 14 14 15 16 18 17 14 10 8 5 3 2 1 1 0 0 1 1 1 0 1 4 6 6 6 6 6
11 17 24 25 21 20 20 22 24 26 26 25 26 25 22 18 17 16 16 16 16 15 13 11 9 6 4 2 1 1 1 0 0 0 0 0 1 3 5 5 5 6 7
9 16 25 27 22 21 22 21 22 23 22 22 24 24 21 18 17 17 15 14 14 13 11 10 8 5 3 1 0 1 1 1 0 0 1 1 1 2 4 4 4 6 7
11 18 26 26 21 21 23 21 19 18 18 18 19 18 16 15 14 15 15 14 13 11 10 9 7 4 3 2 1 0 1 1 0 0 1 1 1 3 4 4 4 5 6
14 20 26 25 20 20 21 21 19 17 15 15 15 14 13 11 11 13 14 14 13 11 9 8 6 5 5 4 1 0 0 0 0 0 1 1 3 5 4 3 3 4 4
17 20 23 21 17 17 18 18 18 16 14 13 13 12 12 10 9 10 11 12 12 10 9 7 6 7 6 5 2 1 0 0 0 0 0 1 3 5 3 3 3 3 3
15 18 19 15 12 11 13 14 15 14 12 12 11 11 10 8 7 7 7 9 10 9 8 7 6 7 6 4 3 1 0 0 1 0 0 2 3 2 2 3 3 3 3
13 16 17 13 8 6 7 10 11 11 10 10 10 8 6 5 4 4 4 6 8 8 8 6 7 7 5 3 2 1 0 0 0 0 0 2 3 2 1 2 2 2 3
14 16 16 13 8 4 4 6 8 8 8 7 6 5 3 2 1 1 2 4 6 7 6 5 6 6 4 3 1 0 0 0 0 0 1 3 4 3 1 1 1 1 1
16 16 15 12 9 5 4 5 6 6 5 4 4 4 4 2 1 1 2 3 3 4 4 4 4 4 4 2 1 0 0 0 0 0 2 4 5 3 2 1 1 0 0
17 16 14 12 11 9 7 7 7 6 5 4 4 4 5 4 3 3 2 1 1 2 4 4 3 3 2 1 0 0 0 0 0 0 2 5 6 4 3 3 1 0 0
15 16 17 17 17 15 13 10 10 9 7 6 5 4 4 4 3 3 3 2 2 3 3 3 2 1 1 0 0 0 0 0 0 0 2 5 7 6 5 4 2 1 1
15 16 19 22 23 21 18 15 12 11 9 8 7 6 5 4 3 3 2 2 2 3 3 3 3 1 1 1 0 1 1 0 0 0 2 5 7 7 6 5 3 2 1
20 20 23 26 26 24 21 17 14 11 10 11 10 10 8 5 3 2 1 1 1 1 2 2 2 2 2 2 2 2 2 1 0 0 1 4 6 7 7 7 6 4 2
25 24 25 26 26 25 22 18 14 12 11 12 13 12 10 7 4 3 2 1 1 1 1 2 3 3 3 3 3 3 2 1 0 0 1 2 3 5 6 7 7 5 3
26 25 24 23 23 23 21 18 14 12 10 10 10 11 10 8 6 5 3 3 3 2 1 2 3 3 3 3 3 2 3 2 1 0 0 1 2 3 3 5 5 4 4
25 26 24 21 20 21 21 19 16 11 9 7 7 8 9 8 6 4 4 5 4 3 3 2 2 2 2 3 2 2 3 3 2 1 0 1 2 2 2 2 2 2 2
26 29 28 24 21 21 22 22 18 13 10 7 5 7 9 7 5 4 5 6 5 4 3 3 2 2 2 3 2 2 3 3 2 1 0 1 2 2 1 0 1 1 1
30 33 32 27 25 23 23 25 22 18 14 9 6 8 9 7 4 4 5 6 6 4 4 4 3 3 3 3 3 2 2 1 1 0 0 0 1 1 1 1 1 1 0
34 34 32 29 27 26 26 27 26 22 17 12 9 10 9 5 4 4 5 6 6 5 4 4 3 3 3 3 3 2 1 0 0 0 0 0 0 1 1 1 1 1 1
31 32 32 31 30 28 29 29 28 25 20 15 11 8 5 4 4 5 6 7 7 6 5 5 4 3 3 2 1 1 0 0 0 0 0 0 0 1 2 2 1 1 1
24 27 31 34 34 32 30 29 27 25 22 18 13 7 4 3 4 5 6 7 7 6 6 7 6 4 3 1 0 0 0 0 0 0 0 0 1 1 2 1 0 0 1
19 22 27 34 36 33 30 27 24 22 21 19 15 11 8 5 4 4 4 6 7 6 6 7 6 5 3 1 1 0 0 0 0 0 0 0 1 2 2 1 0 0 1
17 19 24 30 33 31 29 26 22 19 18 17 16 14 12 8 5 4 4 6 6 5 5 6 6 5 3 2 2 1 1 1 0 0 0 0 1 1 1 1 1 0 0
Wind_Speed
7 10 13 10 9 9 9 10 10 10 10 10 10 10 10 10 9 9 9 8 8 8 8 8 8 8 8 8 8 7 8 9 10 10 10 10 10 11 10 10 10 9 12
8 11 13 10 10 9 10 10 10 10 10 10 10 9 10 10 9 9 8 8 8 8 8 8 8 7 7 7 7 7 8 9 9 9 10 10 10 10 9 8 6 7 11
9 11 13 10 9 9 9 10 10 10 10 10 10 9 9 9 9 8 8 8 8 8 8 8 8 8 7 7 7 7 7 8 8 8 8 7 9 9 8 8 8 9 10
8 10 10 12 9 9 9 10 10 10 10 10 10 10 9 9 8 8 8 8 8 7 7 7 7 7 7 7 6 7 7 7 7 8 6 5 6 9 9 8 8 8 9
9 9 11 11 9 9 9 10 10 10 10 9 9 9 9 8 8 7 7 8 7 7 6 6 6 6 6 6 7 6 7 7 6 7 4 5 5 8 8 8 7 7 8
9 9 12 10 9 8 9 9 9 9 9 9 9 9 8 7 7 7 7 8 7 6 6 6 5 5 6 6 6 6 6 6 7 4 4 5 5 8 8 8 7 7 7
8 8 11 10 8 8 8 8 9 8 8 8 8 8 7 7 6 6 6 7 7 6 6 6 5 6 5 6 6 6 5 4 3 3 4 4 6 9 8 7 6 6 7
8 8 11 10 8 8 7 7 7 8 8 7 7 7 7 7 6 6 6 6 6 7 6 6 5 5 5 5 5 5 5 3 3 3 4 4 8 8 7 7 6 6 7
8 8 9 10 10 9 7 6 6 7 7 7 7 7 7 7 6 6 6 6 6 6 6 6 6 6 5 5 5 4 3 2 2 3 4 4 8 7 7 6 6 6 6
7 7 7 7 8 8 8 7 6 7 6 7 7 8 8 8 7 7 7 6 6 6 6 6 6 6 6 6 5 5 4 4 3 3 3 5 8 6 6 6 6 6 6
7 6 6 6 6 6 7 8 8 8 7 8 8 8 8 7 7 7 6 6 6 6 6 6 6 6 5 6 5 4 4 2 2 2 2 7 6 5 6 6 6 7 6
9 8 7 6 6 6 5 6 5 5 6 5 5 6 5 4 3 4 8 7 6 6 7 6 6 6 5 4 6 6 2 2 2 2 4 8 5 4 5 6 6 6 6
8 8 7 6 5 5 4 4 3 3 4 5 6 5 4 4 4 4 4 6 6 7 5 6 6 3 2 2 1 1 1 1 1 1 5 7 4 4 4 5 5 5 5
8 8 7 7 6 6 4 4 4 4 3 3 5 6 5 3 3 3 2 3 3 2 2 2 2 2 2 2 1 1 1 0 1 1 4 7 4 3 4 4 5 4 4
8 8 7 7 6 5 4 4 4 4 4 4 4 4 4 3 4 4 2 2 2 2 3 2 2 2 2 2 1 1 1 0 0 0 3 7 4 3 3 4 4 4 4
8 8 7 7 7 6 5 4 4 4 4 4 4 4 4 2 2 3 3 2 2 2 1 1 2 2 2 1 1 1 1 1 1 1 1 5 6 4 3 3 3 4 4
9 8 8 8 8 7 6 6 4 4 4 4 4 5 5 4 3 3 3 3 2 2 3 2 2 2 2 2 2 2 1 1 1 1 2 1 3 7 5 4 3 4 4
9 9 8 7 8 8 6 5 4 4 4 3 4 4 4 4 4 3 3 3 3 2 2 2 2 2 2 2 2 1 1 1 2 2 2 2 1 2 6 6 4 4 5
9 9 9 8 8 8 7 6 5 4 3 3 3 3 4 5 5 4 3 2 3 3 2 2 2 2 2 2 2 2 2 2 2 3 3 3 2 3 2 6 7 6 6
9 9 9 9 8 8 7 5 4 5 4 4 3 3 4 4 4 4 3 4 4 3 3 2 2 2 2 2 2 2 2 2 3 3 4 3 3 4 4 3 4 6 8
9 10 10 10 9 7 6 6 5 5 5 4 4 4 4 4 4 4 3 3 3 3 3 4 3 4 3 2 3 3 3 4 3 3 4 3 4 4 4 4 4 3 4
9 10 10 10 10 9 6 5 4 5 5 4 4 4 4 4 4 4 3 3 3 3 4 4 4 3 3 3 3 3 3 4 5 4 4 4 4 4 4 5 4 4 4
10 10 9 10 10 9 8 5 5 4 5 5 5 4 4 4 4 3 4 3 3 4 4 5 5 5 4 4 4 4 3 2 2 4 5 4 4 4 4 4 5 5 5
10 10 10 10 10 9 8 7 7 6 5 4 4 4 4 5 4 4 4 4 4 4 3 5 5 4 5 4 4 4 4 3 3 2 4 5 5 5 4 4 4 5 5
9 9 10 10 9 9 8 8 7 6 5 4 4 4 4 4 4 4 5 4 4 4 4 4 4 5 5 5 4 3 4 3 5 5 3 3 4 4 4 5 4 4 5
8 9 9 10 9 9 8 8 8 7 6 5 5 4 4 4 4 5 5 5 5 4 4 5 5 6 5 5 5 4 4 4 4 5 4 5 4 3 4 4 5 5 4
Wind_Direction
145 132 135 147 147 147 144 141 136 132 131 127 124 122 123 122 121 124 121 117 117 118 118 120 122 125 132 134 128 124 129 131 133 138 137 135 136 136 138 143 150 134 123
138 134 139 149 149 151 149 144 140 138 135 130 128 126 124 124 124 127 126 119 116 118 120 120 122 125 127 132 130 129 129 130 132 139 145 144 140 139 142 142 127 114 129
137 135 147 151 151 151 150 146 144 142 139 137 134 131 128 126 124 126 128 122 117 118 117 117 121 124 124 127 130 134 135 135 139 151 172 157 143 144 145 138 126 125 134
139 140 143 146 153 152 151 148 146 145 143 141 140 136 134 130 128 130 130 124 120 119 119 116 115 121 124 128 134 135 138 140 151 181 178 142 139 141 146 138 133 136 141
144 141 130 146 152 152 151 151 149 147 146 145 143 140 136 133 131 128 127 124 122 121 121 118 114 118 127 135 143 137 139 149 172 204 152 136 125 134 146 142 137 141 142
144 141 133 150 150 149 153 154 152 149 147 146 147 143 137 135 131 128 128 126 124 127 124 120 118 120 128 132 137 140 146 164 199 167 147 147 137 141 150 151 148 147 139
143 137 136 149 150 150 149 150 152 150 149 147 148 146 141 137 133 129 132 134 132 132 133 128 124 122 127 130 134 137 146 175 211 140 149 154 130 143 150 150 156 155 152
143 140 135 148 153 152 149 144 147 152 151 150 153 151 147 144 138 136 138 139 138 134 130 126 122 122 128 125 126 129 140 202 178 146 150 143 125 141 149 151 162 160 159
148 144 145 153 156 156 150 146 146 144 148 153 155 156 154 152 150 148 143 139 136 134 132 128 125 117 110 110 115 125 141 204 219 161 156 135 125 143 155 159 160 162 164
152 148 148 152 151 161 158 149 148 150 150 154 156 157 161 164 163 160 158 138 133 132 131 129 123 118 113 112 117 130 163 209 194 157 147 124 129 150 163 165 165 168 173
157 156 156 153 155 163 155 147 160 162 161 169 163 165 183 177 165 170 136 136 137 134 132 128 124 126 136 138 134 150 192 202 142 128 125 109 135 162 172 172 174 172 177
168 168 161 162 163 167 156 156 172 171 162 180 158 168 175 157 160 150 135 147 147 146 147 142 146 166 197 159 151 181 198 168 148 154 122 118 143 167 173 176 180 180 182
169 170 167 166 168 171 167 168 170 170 162 172 162 167 161 167 163 164 156 162 165 174 166 157 181 183 163 121 145 157 160 186 170 154 123 123 144 168 172 176 178 183 187
171 172 168 166 170 179 172 170 177 174 169 171 161 177 167 167 167 161 170 163 173 162 154 177 165 137 140 145 153 143 156 215 132 123 114 123 145 169 181 184 186 188 194
176 174 173 173 168 174 174 186 177 179 174 163 164 163 171 169 170 161 163 179 179 157 170 175 156 142 160 164 170 146 153 141 209 233 125 129 138 156 172 180 190 191 198
179 177 171 173 170 174 180 189 182 178 173 170 160 155 167 160 148 166 166 163 165 162 138 158 146 160 180 156 171 166 204 176 174 244 192 147 151 161 174 190 200 200 200
180 177 174 173 173 178 184 187 179 175 167 165 154 156 165 163 149 167 166 170 159 147 156 173 154 183 191 182 187 198 204 222 204 231 242 226 172 167 175 189 199 201 204
180 176 176 175 174 177 180 181 172 166 162 161 157 152 161 163 161 175 174 169 151 177 181 174 193 197 199 209 200 212 208 204 221 225 230 228 242 201 175 173 188 202 208
180 175 176 177 177 177 175 172 166 156 157 163 163 160 158 172 175 185 181 160 178 189 197 206 184 220 213 219 211 209 224 220 221 226 232 234 232 242 234 163 181 198 208
179 175 176 177 175 173 172 171 170 163 161 169 164 158 164 172 176 190 182 174 192 191 197 204 202 222 239 234 240 230 241 235 233 229 235 225 224 231 238 230 206 190 192
177 175 177 179 173 174 174 178 176 172 168 166 170 168 176 181 180 196 198 178 202 197 203 205 208 200 222 222 229 226 222 217 231 230 234 239 228 230 233 234 243 234 192
178 176 176 179 175 179 175 176 178 172 172 164 169 171 184 188 195 192 201 208 198 199 200 208 215 220 215 221 242 243 231 206 203 218 223 225 234 232 229 225 224 223 244
179 178 175 175 175 180 174 172 164 169 173 168 174 175 184 192 196 203 199 217 209 214 202 209 211 219 219 215 237 257 262 250 213 195 212 222 225 233 234 232 225 218 226
178 175 171 171 173 173 175 179 179 184 185 178 182 174 186 194 198 199 207 213 221 224 207 215 210 226 226 226 216 244 276 309 276 233 205 207 217 230 235 239 234 220 224
175 170 169 167 170 174 183 183 190 193 188 178 180 171 189 188 201 203 204 209 215 225 219 226 215 227 231 237 238 228 224 231 254 264 254 234 227 227 224 229 237 231 222
172 168 166 166 168 174 183 188 194 190 188 183 186 183 194 195 199 203 210 213 219 225 219 222 220 223 236 243 252 248 240 236 232 243 252 250 249 236 230 235 235 231 224